YAOGAN-50 02

导读

YAOGAN-50 02(NORAD编号68196)是中国研发的遥感卫星,于北京时间2026年3月15日晚间,在山西太原卫星发射中心由改进型长征六号运载火箭成功发射送入预定轨道,任务取得圆满成功。该卫星主要服务于国土勘测、农作物产量估测以及防灾减灾等领域,将为相关领域的科学研究和民生应用提供遥感数据支撑,也是中国地球观测星座建设过程中的重要组成部分。

Basic Information
目录编号:
68196
目录名称:
YAOGAN-50 02
国际标识:
2026-051A
轨道中心:
EARTH
卫星名称:
YAOGAN-50 02
卫星全名:
YAOGAN-50 02
卫星状态:
在轨 (已飞行94 天)
发射日期:
2026-03-15 UTC
国别 :
中国 (CN)
星等 :
--
Orbit Information
数据来源 国际轨道数据 AOE轨道数据
星历时间 2026-06-17T13:10:10+0800
5小时前
查看轨道信息
2026-06-16T03:00:00+0800
1天前
查看轨道信息
半长轴 7330.451km 7330.454km
偏心率 0.0000533 0.0001578
轨道倾角 141.991° 141.993°
近地点辐角 269.832° 242.983°
升交点赤经 327.730° 320.851°
平近点角 90.233° 218.085°
近地点 951.923km 951.16km
远地点 952.705km 953.474km
周期 104.101分钟 104.101分钟
每日圈数 13.832694 13.832685
Detailed Information
使用方式:
暂无
2D Orbit Map
3D Orbit Map
Orbit Altitude Analysis Chart
Orbit Inclination Analysis Chart
Orbit Comprehensive Analysis Chart
View Comprehensive Chart